Flag Weather past 2 weeks in Salinas, California, U.S.A.

Now
69 °F

Sunny.


Feels Like: 69 °F
Forecast: 44 / 63 °F
Wind: 6 mph from Northwest

Location: Salinas Municipal Airport

Current Time: Nov 27, 2014 at 4:32:44 PM

Latest Report: Nov 27, 2014 at 3:53 PM


Visibility: 10 mi

Pressure: 30.09 "Hg

Humidity: 47%

Dew point: 48 °F

Location of SalinasLocation

Historic Weather in Salinas — Graph

°F

Salinas temperature yesterday

Maximum temperature yesterday: 81 °F (at 2:53 PM)
Minimum temperature yesterday: 51 °F (at 11:53 PM)
Average temperature yesterday: 62 °F

Past Weeks' High & Low Weather Summary

 TemperatureHumidityPressure
High81 °F (Nov 26, 2:53 PM)94% (Nov 14, 6:01 AM)30.45 "Hg (Nov 14, 6:01 AM)
Low41 °F (Nov 24, 5:53 AM)16% (Nov 18, 2:53 PM)29.99 "Hg (Nov 13, 5:53 AM)
Average59 °F65%30.18 "Hg
* Reported Nov 12 2:53 PM — Nov 27 2:53 PM, Salinas, Weather by CustomWeather, © 2014

Note: Actual official high and low records may vary slightly from our data, if they occured in-between our weather recording intervals... More about our weather records

Advertising

Salinas weather history for previous 24 hours

 ConditionsComfort  
Time TempWeatherWind HumidityBarometerVisibility
2:53 PM
Nov 27
70 °FSunny.8 mph44%30.09 "Hg10 mi
1:53 PM72 °FSunny.9 mph37%30.09 "Hg10 mi
12:53 PM75 °FSunny.3 mph25%30.11 "Hg10 mi
11:53 AM73 °FSunny.No wind28%30.14 "Hg10 mi
10:53 AM68 °FSunny.5 mph35%30.17 "Hg10 mi
9:53 AM62 °FSunny.9 mph38%30.19 "Hg10 mi
8:53 AM56 °FSunny.9 mph51%30.19 "Hg10 mi
7:53 AM49 °FSunny.5 mph61%30.19 "Hg10 mi
6:53 AM50 °FClear.6 mph59%30.19 "Hg10 mi
5:53 AM50 °FClear.3 mph59%30.18 "Hg10 mi
4:53 AM52 °FClear.13 mph55%30.17 "Hg10 mi
3:53 AM51 °FClear.8 mph61%30.18 "Hg10 mi
2:53 AM51 °FClear.9 mph59%30.19 "Hg10 mi
1:53 AM51 °FClear.5 mph63%30.20 "Hg10 mi
12:53 AM51 °FClear.8 mph66%30.20 "Hg10 mi
11:53 PM
Nov 26
51 °FClear.5 mph69%30.22 "Hg10 mi
10:53 PM53 °FClear.3 mph69%30.24 "Hg10 mi
9:53 PM52 °FClear.3 mph69%30.23 "Hg10 mi
8:53 PM58 °FClear.3 mph60%30.23 "Hg10 mi
7:53 PM56 °FClear.No wind62%30.22 "Hg10 mi
6:53 PM63 °FClear.5 mph48%30.22 "Hg10 mi
5:53 PM68 °FClear.7 mph28%30.21 "Hg10 mi
4:53 PM71 °FClear.6 mph23%30.21 "Hg10 mi
Weather by CustomWeather, © 2014

See weather overviewHow to use our weather pages